[[{"header":{"parameterUnit":"m.s-1","parameterCategory":1,"la1":30.2991,"la2":30.254,"lo1":-89.0895,"lo2":-89.0444,"dy":0.0017,"dx":0.0017,"nx":28,"ny":28,"refTime":"2025-07-23T21:00:00:Z","depth":0,"parameterNumber":2,"parameterNumberName":"U-component_of_WINDS"},"data":[0,0,0,0,0,0,0,0,0,0,0,0,0,0,0,0,0,0,0,0,0,0,0,0,0,0,0,0,0,0,0,0,0,0,0,0,0,0,0,0,0,0,0,0,0,0,0,0,0,0,0,0,0,0,0,0,0,0,-2.2986,-2.2987,0,-2.3023,-2.3023,-2.3024,-2.3042,-2.3042,-2.3042,-2.3042,-2.3085,-2.3086,-2.3087,0,0,0,0,0,0,0,0,0,0,0,0,0,-2.2937,-2.2938,-2.2986,-2.2987,-2.2987,-2.3023,-2.3023,-2.3024,-2.3042,-2.3042,-2.3042,-2.3042,-2.3085,-2.3086,-2.3087,0,0,0,0,0,0,0,0,0,0,0,0,0,-2.2965,-2.2938,-2.2986,-2.3001,-2.3002,-2.3023,-2.3023,-2.3024,-2.3042,-2.3042,-2.3042,-2.3042,-2.3084,-2.3086,-2.3087,-2.3098,0,0,-2.3093,-2.3093,0,0,0,0,0,0,0,0,-2.2963,-2.2967,-2.2998,-2.3,-2.3001,-2.3028,-2.3022,-2.3049,-2.3042,-2.3027,-2.3042,-2.3042,-2.3066,-2.3069,-2.3076,-2.31,-2.3102,-2.3093,-2.3094,-2.3094,-2.3095,0,0,0,0,0,0,0,-2.2961,-2.2965,-2.3001,-2.2998,-2.3001,-2.3007,-2.3011,-2.3027,-2.3047,-2.3029,-2.303,-2.3034,-2.3067,-2.3075,-2.3078,-2.3102,-2.3093,-2.3094,-2.3095,-2.3096,-2.3137,-2.3137,0,0,0,0,0,0,-2.2956,-2.2963,-2.3,-2.3002,-2.2982,-2.3008,-2.3012,-2.302,-2.3046,-2.305,-2.3034,-2.3035,-2.3072,-2.3076,-2.3079,-2.3093,-2.3094,-2.3096,-2.3097,-2.3137,-2.3137,-2.3137,0,0,0,0,0,0,-2.2955,-2.2959,-2.2998,-2.2983,-2.2988,-2.3009,-2.3017,-2.302,-2.3028,-2.305,-2.3054,-2.3038,-2.3072,-2.3077,-2.3093,-2.3095,-2.3097,-2.3098,-2.3137,-2.3137,-2.3137,-2.3122,0,0,0,0,0,0,-2.2954,-2.2959,-2.2962,-2.2983,-2.2989,-2.3009,-2.3017,-2.3021,-2.303,-2.3031,-2.3055,-2.3059,-2.3072,-2.309,-2.3095,-2.3098,-2.31,-2.3137,-2.3137,-2.3137,-2.3122,-2.3121,-2.3121,0,0,0,0,0,-2.2952,-2.2957,-2.2962,-2.2966,-2.2993,-2.3009,-2.3013,-2.3028,-2.303,-2.3034,-2.3049,-2.3058,-2.3094,-2.3092,-2.3097,-2.31,-2.3137,-2.3137,-2.3137,-2.3122,-2.3121,-2.3121,0,0,0,0,0,0,-2.2936,-2.296,-2.2965,-2.2977,-2.2991,-2.3013,-2.3018,-2.3026,-2.3041,-2.3042,-2.306,-2.3066,-2.308,-2.3092,-2.3089,-2.3112,-2.3117,-2.3118,-2.3104,-2.3103,-2.3102,-2.3099,-2.3101,0,0,0,0,0,-2.2934,-2.2944,-2.2965,-2.2973,-2.2979,-2.2997,-2.3005,-2.3015,-2.3031,-2.3037,-2.3053,-2.307,-2.3085,-2.3095,-2.311,-2.3124,-2.313,-2.3129,-2.3129,-2.3128,-2.3129,-2.3138,-2.3138,-2.3138,-2.3138,-2.3138,0,0,-2.293,-2.2944,-2.2949,-2.297,-2.2982,-2.2994,-2.3002,-2.3014,-2.3023,-2.304,-2.3055,-2.3068,-2.3088,-2.3103,-2.3111,-2.3114,-2.313,-2.3128,-2.3127,-2.3129,-2.3138,-2.3138,-2.3138,-2.3138,-2.3138,-2.3138,0,0,-2.2928,-2.2939,-2.2947,-2.2959,-2.2976,-2.2989,-2.2991,-2.3011,-2.302,-2.3035,-2.3048,-2.3061,-2.3086,-2.31,-2.3111,-2.3115,-2.3125,-2.312,-2.3116,-2.3125,-2.3125,-2.3125,-2.3127,-2.3127,-2.3121,-2.3121,-2.3121,0,-2.292,-2.2937,-2.2951,-2.2961,-2.2971,-2.2985,-2.2995,-2.3006,-2.3029,-2.3035,-2.3038,-2.3071,-2.3086,-2.3105,-2.3106,-2.3114,-2.3118,-2.3117,-2.3123,-2.3124,-2.3124,-2.3126,-2.3127,-2.312,-2.312,-2.312,-2.312,0,-2.2927,-2.2938,-2.2943,-2.2963,-2.2973,-2.2983,-2.3,-2.3009,-2.3019,-2.3031,-2.3048,-2.3066,-2.3085,-2.3091,-2.3101,-2.3112,-2.3113,-2.3119,-2.3124,-2.3123,-2.3125,-2.3126,-2.3119,-2.3119,-2.3119,-2.312,0,0,-2.2915,-2.2943,-2.2944,-2.2954,-2.2975,-2.2985,-2.2997,-2.3014,-2.3022,-2.3038,-2.3049,-2.3071,-2.3077,-2.3088,-2.31,-2.3108,-2.3111,-2.3114,-2.3115,-2.3113,-2.3126,-2.3121,-2.3121,-2.3118,-2.3118,-2.3118,-2.3124,0,-2.2916,-2.2936,-2.2949,-2.2964,-2.2975,-2.299,-2.3,-2.3016,-2.3028,-2.3041,-2.3056,-2.3071,-2.3077,-2.3084,-2.3093,-2.3109,-2.3114,-2.3109,-2.313,-2.3131,-2.3124,-2.3123,-2.3117,-2.3122,-2.3125,-2.3126,-2.3126,0,-2.292,-2.2933,-2.2948,-2.2969,-2.2974,-2.2983,-2.3001,-2.3012,-2.3031,-2.304,-2.3053,-2.3065,-2.308,-2.3084,-2.3106,-2.3102,-2.3112,-2.3121,-2.3122,-2.3124,-2.3128,-2.3125,-2.3123,-2.3124,-2.3127,-2.3127,-2.3127,0,-2.2909,-2.2932,-2.2944,-2.2952,-2.2976,-2.2982,-2.2993,-2.3011,-2.3021,-2.3037,-2.3044,-2.3063,-2.3073,-2.3088,-2.3106,-2.3107,-2.3127,-2.3132,-2.3135,-2.3135,-2.3138,-2.3138,-2.3138,-2.3145,-2.3145,-2.3145,-2.3145,0,-2.2909,-2.2918,-2.294,-2.2947,-2.2959,-2.2975,-2.2987,-2.2999,-2.3015,-2.3027,-2.3042,-2.3053,-2.3075,-2.309,-2.3104,-2.3121,-2.3125,-2.3134,-2.3137,-2.3132,-2.3131,-2.3139,-2.3139,-2.3145,-2.3145,-2.3145,-2.3145,0,-2.2899,-2.2914,-2.2929,-2.295,-2.2956,-2.2963,-2.2983,-2.2992,-2.3005,-2.302,-2.3024,-2.3046,-2.3064,-2.3083,-2.3108,-2.3118,-2.3134,-2.3139,-2.3127,-2.3129,-2.3132,-2.3131,-2.3137,-2.3139,-2.3144,-2.3144,-2.3144,0,-2.2897,-2.2905,-2.2927,-2.2935,-2.2944,-2.2957,-2.2967,-2.2985,-2.2995,-2.3017,-2.3024,-2.3042,-2.3058,-2.3087,-2.3106,-2.3126,-2.3131,-2.3132,-2.3134,-2.3129,-2.3132,-2.3131,-2.3132,-2.3131,-2.3131,-2.3131,-2.3131,0,-2.2893,-2.29,-2.2913,-2.2929,-2.294,-2.2954,-2.2968,-2.2975,-2.2995,-2.3007,-2.3024,-2.3036,-2.3061,-2.308,-2.3102,-2.3116,-2.3127,-2.313,-2.3132,-2.3126,-2.3119,-2.3123,-2.3124,-2.3129,-2.313,-2.313,-2.313,-2.313,-2.2888,-2.2895,-2.2911,-2.2925,-2.2938,-2.2951,-2.2961,-2.2975,-2.2989,-2.301,-2.302,-2.3038,-2.3058,-2.3088,-2.3102,-2.3117,-2.3121,-2.3124,-2.3124,-2.3125,-2.3123,-2.3117,-2.3122,-2.3122,-2.3122,-2.3122,-2.3122,0,-2.2884,-2.2895,-2.2908,-2.2927,-2.2939,-2.2947,-2.2964,-2.2974,-2.2988,-2.3005,-2.302,-2.3041,-2.306,-2.3081,-2.3102,-2.311,-2.3116,-2.3115,-2.3115,-2.3118,-2.3119,-2.3115,-2.311,-2.311,-2.311,-2.311,-2.311,-2.311,-2.2883,-2.2896,-2.2905,-2.2925,-2.2937,-2.2953,-2.2962,-2.2975,-2.2989,-2.3011,-2.3026,-2.3038,-2.3058,-2.308,-2.3098,-2.3104,-2.3111,-2.3109,-2.3116,-2.3117,-2.3118,-2.3119,-2.3115,-2.311,-2.311,-2.3114,-2.3114,-2.3114]},{"header":{"parameterUnit":"m.s-1","parameterCategory":1,"la1":30.2991,"la2":30.254,"lo1":-89.0895,"lo2":-89.0444,"dy":0.0017,"dx":0.0017,"nx":28,"ny":28,"refTime":"2025-07-23T21:00:00:Z","depth":0,"parameterNumber":3,"parameterNumberName":"V-component_of_WINDS"},"data":[0,0,0,0,0,0,0,0,0,0,0,0,0,0,0,0,0,0,0,0,0,0,0,0,0,0,0,0,0,0,0,0,0,0,0,0,0,0,0,0,0,0,0,0,0,0,0,0,0,0,0,0,0,0,0,0,0,0,5.1476,5.1476,0,5.1391,5.139,5.1389,5.1314,5.1313,5.1313,5.1312,5.1221,5.122,5.1218,0,0,0,0,0,0,0,0,0,0,0,0,0,5.1574,5.1573,5.1477,5.1475,5.1474,5.1391,5.139,5.1388,5.1314,5.1313,5.1312,5.1311,5.1222,5.122,5.1218,0,0,0,0,0,0,0,0,0,0,0,0,0,5.1515,5.1572,5.1477,5.1427,5.1422,5.1391,5.139,5.1388,5.1315,5.1313,5.1312,5.1311,5.1223,5.122,5.1218,5.1228,0,0,5.121,5.1209,0,0,0,0,0,0,0,0,5.1518,5.1511,5.1436,5.1431,5.1425,5.1362,5.1391,5.1334,5.1315,5.1355,5.1312,5.131,5.1269,5.1263,5.1249,5.1224,5.122,5.121,5.1209,5.1208,5.1207,0,0,0,0,0,0,0,5.1522,5.1514,5.1442,5.1435,5.1428,5.1409,5.1399,5.138,5.132,5.1352,5.1346,5.1337,5.1266,5.1252,5.1247,5.1219,5.121,5.1208,5.1207,5.1206,5.1198,5.12,0,0,0,0,0,0,5.1534,5.1518,5.1445,5.144,5.1469,5.1408,5.1397,5.1383,5.132,5.1309,5.1338,5.1334,5.1257,5.125,5.1243,5.1252,5.1208,5.1205,5.1204,5.1197,5.1199,5.12,0,0,0,0,0,0,5.1537,5.1529,5.1449,5.1478,5.1466,5.1408,5.1393,5.1382,5.1368,5.131,5.1299,5.1335,5.1255,5.1247,5.1233,5.1248,5.1204,5.1202,5.1196,5.1198,5.1199,5.1269,0,0,0,0,0,0,5.154,5.153,5.1533,5.1478,5.1465,5.144,5.1394,5.1382,5.1365,5.1358,5.1304,5.1294,5.1254,5.1237,5.123,5.1243,5.12,5.1194,5.1197,5.1199,5.1265,5.1273,5.128,0,0,0,0,0,5.1544,5.1555,5.1534,5.1526,5.1468,5.1441,5.1433,5.1388,5.1366,5.1369,5.1332,5.1296,5.1247,5.1236,5.1228,5.1241,5.1193,5.1196,5.1199,5.1262,5.1271,5.128,0,0,0,0,0,0,5.1612,5.1547,5.1523,5.1517,5.1486,5.1429,5.1431,5.1399,5.1372,5.1367,5.1311,5.1299,5.1292,5.1264,5.1253,5.1248,5.1215,5.1217,5.1266,5.1275,5.1282,5.1289,5.1198,0,0,0,0,0,5.1627,5.1612,5.1555,5.1556,5.1541,5.1489,5.1476,5.1444,5.1408,5.1394,5.1356,5.1322,5.1299,5.1285,5.1261,5.1261,5.1248,5.1266,5.1273,5.1279,5.1281,5.128,5.1288,5.1209,5.1209,5.1209,0,0,5.1657,5.162,5.1613,5.1569,5.154,5.1525,5.1478,5.1464,5.1452,5.1391,5.1377,5.1348,5.1306,5.13,5.1295,5.1277,5.13,5.1283,5.1289,5.1287,5.1284,5.1292,5.1298,5.1211,5.1211,5.1211,0,0,5.1704,5.1674,5.1672,5.1645,5.1603,5.1569,5.1569,5.1517,5.1496,5.148,5.1435,5.142,5.1381,5.1354,5.1335,5.1374,5.134,5.1368,5.1406,5.1406,5.1412,5.1417,5.1432,5.1438,5.137,5.137,5.137,0,5.1746,5.1722,5.1675,5.1664,5.1646,5.1591,5.1589,5.1565,5.1517,5.1506,5.1486,5.1439,5.1407,5.1394,5.1404,5.139,5.1388,5.1374,5.1415,5.142,5.1424,5.1438,5.1443,5.1374,5.1373,5.1373,5.1373,0,5.1777,5.1761,5.1764,5.1721,5.1703,5.1697,5.1648,5.1635,5.1605,5.1573,5.1558,5.1519,5.1486,5.1481,5.145,5.1464,5.1454,5.1426,5.1392,5.1436,5.1448,5.1453,5.1379,5.1378,5.1377,5.1376,0,0,5.1864,5.1796,5.1798,5.1778,5.1729,5.1715,5.1706,5.1676,5.1667,5.1636,5.1627,5.1597,5.1571,5.155,5.1516,5.1516,5.1551,5.1488,5.1486,5.1502,5.1565,5.1587,5.1593,5.1528,5.1529,5.1529,5.1568,0,5.1903,5.1885,5.1842,5.1837,5.1822,5.1771,5.1764,5.1733,5.1703,5.1685,5.1651,5.1631,5.1598,5.1586,5.1583,5.1547,5.1563,5.1544,5.152,5.1519,5.1532,5.1599,5.1622,5.166,5.1573,5.1573,5.1574,0,5.1946,5.1921,5.1915,5.1868,5.186,5.1854,5.1823,5.1807,5.1771,5.1749,5.1727,5.169,5.1678,5.1647,5.163,5.1618,5.1605,5.1586,5.1587,5.1583,5.155,5.1598,5.1671,5.1678,5.158,5.158,5.1579,0,5.2012,5.1975,5.1967,5.1952,5.1896,5.1893,5.187,5.1833,5.1818,5.179,5.178,5.1752,5.1736,5.1715,5.1672,5.1653,5.166,5.1625,5.1642,5.1643,5.1645,5.1646,5.1719,5.1637,5.1637,5.1637,5.1637,0,5.2061,5.2059,5.1996,5.1991,5.1988,5.1939,5.1937,5.1909,5.1877,5.1865,5.1819,5.1809,5.1752,5.1736,5.1702,5.1694,5.1687,5.1669,5.166,5.1673,5.1676,5.1665,5.1661,5.1638,5.1638,5.1638,5.1637,0,5.2133,5.2091,5.2079,5.2028,5.2015,5.2015,5.1971,5.1965,5.1932,5.1919,5.1913,5.1862,5.1841,5.1795,5.1761,5.1738,5.1739,5.1722,5.1751,5.1746,5.1765,5.1765,5.1834,5.1841,5.1755,5.1756,5.1756,0,5.2167,5.2165,5.2115,5.2104,5.2083,5.2067,5.2052,5.2003,5.1989,5.1949,5.1948,5.1923,5.19,5.1869,5.1829,5.1803,5.1786,5.1812,5.1781,5.1796,5.1787,5.1788,5.1788,5.1819,5.182,5.1821,5.1822,0,5.2232,5.2212,5.2192,5.2166,5.2149,5.2125,5.2099,5.2093,5.2039,5.2025,5.2004,5.1987,5.1953,5.1929,5.1898,5.1873,5.1839,5.1832,5.1835,5.1848,5.1866,5.1858,5.1771,5.183,5.183,5.1829,5.1828,5.1828,5.2287,5.2283,5.2248,5.2228,5.2203,5.218,5.2172,5.214,5.2121,5.209,5.2063,5.2044,5.2009,5.1963,5.1941,5.1926,5.1909,5.1912,5.1913,5.1915,5.1921,5.1868,5.192,5.1919,5.1919,5.1919,5.1919,0,5.2351,5.2326,5.2308,5.2274,5.2258,5.2228,5.2198,5.2187,5.2171,5.2141,5.2121,5.2097,5.2074,5.2033,5.2007,5.2002,5.1986,5.1997,5.1997,5.1992,5.1938,5.1938,5.2011,5.2011,5.2011,5.2011,5.2011,5.2011,5.2382,5.2375,5.2351,5.2331,5.2305,5.2288,5.2273,5.2252,5.2228,5.2204,5.2185,5.2159,5.2125,5.2096,5.2074,5.2062,5.2055,5.2072,5.2055,5.2005,5.1996,5.1988,5.1988,5.207,5.207,5.2111,5.2112,5.2112]}]]